Volver al catálogo

STARLINK-11727

ActivoComunicacionesVLEO
NORAD 64123·PAYLOAD·🇺🇸 United States

Lanzado May 24, 2025 desde Cape Canaveral Space Force Station

Loading…

Próximos Pases (próximas 24 horas)

TLE

ActualizadoSource: CelesTrak SupGP

Época: Sep 14, 2026, 21:32 UTC

1 64123C 25111A   26257.89770833 -.00007686  00000+0 -59726-4 0  2571
2 64123  43.0004 273.6835 0001657 263.4687  76.4786 15.70831264    14

Sigue STARLINK-11727 en tiempo real con AllMySat

Download on the App Store